Sterling Muni, Sterling, CO, CO

5:21 PM MDT on April 28, 2017 (GMT -0600)
Sterling Municipal

Weather History for KSTK - January, 2014

Change the Weather History Date:

Sunday, January 5, 2014

  Actual Average Record
Temperature  
Mean Temperature 3 °F -  
Max Temperature 17 °F 34 °F 41 °F (2015)
Min Temperature -11 °F 7 °F -11 °F (2014)
Degree Days  
Heating Degree Days 62    
Moisture  
Dew Point 0 °F    
Average Humidity 75    
Maximum Humidity 93    
Minimum Humidity 57    
Precipitation  
Precipitation 0.00 in - - ()
Sea Level Pressure  
Sea Level Pressure 30.27 in    
Wind  
Wind Speed 8 mph (North)    
Max Wind Speed 20 mph    
Max Gust Speed 23 mph    
Visibility 8 miles    
Events Snow    
Averages and records for this station are not official NWS values.
T = Trace of Precipitation, MM = Missing Value Source: NWS Daily Summary

Daily Weather History Graph

Daily Weather History Graph

Search for Another Location

Airport or City:

Trip Planner

Search our weather history database for the weather conditions in past years. The results will help you decide how hot, cold, wet, or windy it might be!

Date:

Astronomy

Jan. 05, 2014 Rise Set
Actual Time 7:16 AM MST 4:40 PM MST
Civil Twilight 6:46 AM MST 5:10 PM MST
Nautical Twilight 6:12 AM MST 5:45 PM MST
Astronomical Twilight 5:39 AM MST 6:18 PM MST
Moon 9:58 AM MST (1/5) 10:12 PM MST (1/5)
Length of Visible Light 10h 24m
Length of Day
9h 23m
Waxing Crescent, 25% of the Moon is Illuminated
Jan 5
Waxing Crescent
Jan 7
First Quarter
Jan 15
Full
Jan 23
Last Quarter
Jan 30
New

Hourly Weather History & Observations

Time (MST) Temp. Windchill Dew Point Humidity Pressure Visibility Wind Dir Wind Speed Gust Speed Precip Events Conditions
12:10 AM 14.0 °F 5.1 °F 12.2 °F 93% 30.07 in 5.0 mi South 5.8 mph - N/A Snow Light Snow
12:30 AM 15.8 °F 8.6 °F 12.2 °F 86% 30.07 in 7.0 mi South 4.6 mph - N/A Snow Light Snow
12:50 AM 15.8 °F 8.6 °F 12.2 °F 86% 30.07 in 3.0 mi SSE 4.6 mph - N/A Snow Light Snow
1:10 AM 15.8 °F 8.6 °F 12.2 °F 86% 30.07 in 2.5 mi SE 4.6 mph - N/A Snow Light Snow
1:30 AM 17.6 °F 10.7 °F 12.2 °F 79% 30.07 in 5.0 mi ESE 4.6 mph - N/A Snow Light Snow
1:50 AM 17.6 °F 12.3 °F 12.2 °F 79% 30.08 in 10.0 mi East 3.5 mph - N/A   Overcast
2:10 AM 17.6 °F 9.3 °F 12.2 °F 79% 30.08 in 5.0 mi ESE 5.8 mph - N/A Snow Light Snow
2:30 AM 17.6 °F 8.2 °F 12.2 °F 79% 30.08 in 2.5 mi ESE 6.9 mph - N/A Snow Light Snow
2:50 AM 15.8 °F 6.1 °F 10.4 °F 79% 30.09 in 5.0 mi ESE 6.9 mph - N/A Snow Light Snow
3:10 AM 14.0 °F 6.5 °F 10.4 °F 86% 30.09 in 5.0 mi East 4.6 mph - N/A Snow Light Snow
3:30 AM 14.0 °F 5.1 °F 10.4 °F 86% 30.09 in 3.0 mi ENE 5.8 mph - N/A Snow Light Snow
3:50 AM 14.0 °F 5.1 °F 10.4 °F 86% 30.09 in 3.0 mi East 5.8 mph - N/A Snow Light Snow
4:10 AM 14.0 °F 5.1 °F 10.4 °F 86% 30.11 in 5.0 mi ENE 5.8 mph - N/A Snow Light Snow
4:30 AM 12.2 °F -1.0 °F 10.4 °F 92% 30.11 in 1.2 mi East 10.4 mph - N/A Snow Light Snow
4:50 AM 12.2 °F -0.2 °F 8.6 °F 85% 30.12 in 2.5 mi ENE 9.2 mph - N/A Snow Light Snow
5:10 AM 10.4 °F -4.1 °F 8.6 °F 92% 30.13 in 4.0 mi ENE 11.5 mph - N/A Snow Light Snow
5:30 AM 10.4 °F -4.1 °F 6.8 °F 85% 30.14 in 2.5 mi ENE 11.5 mph - N/A Snow Light Snow
5:50 AM 10.4 °F -3.3 °F 8.6 °F 92% 30.16 in 2.5 mi NE 10.4 mph - N/A Snow Light Snow
6:10 AM 10.4 °F -3.3 °F 6.8 °F 85% 30.17 in 2.0 mi NE 10.4 mph - N/A Snow Light Snow
6:30 AM 10.4 °F -4.1 °F 5.0 °F 79% 30.19 in 7.0 mi NE 11.5 mph - N/A Snow Light Snow
6:50 AM 10.4 °F -1.5 °F 5.0 °F 79% 30.20 in 5.0 mi NE 8.1 mph - N/A Snow Light Snow
7:10 AM 8.6 °F -2.6 °F 5.0 °F 85% 30.20 in 5.0 mi NE 6.9 mph - N/A Snow Light Snow
7:30 AM 8.6 °F -2.6 °F 5.0 °F 85% 30.21 in 2.5 mi NE 6.9 mph - N/A Snow Light Snow
7:50 AM 8.6 °F -1.3 °F 5.0 °F 85% 30.22 in 2.0 mi NNE 5.8 mph - N/A   Overcast
8:10 AM 8.6 °F 0.1 °F 5.0 °F 85% 30.23 in 3.0 mi NNE 4.6 mph - N/A Snow Light Snow
8:30 AM 8.6 °F - 5.0 °F 85% 30.24 in 7.0 mi Calm Calm - N/A Snow Light Snow
8:50 AM 10.4 °F 4.0 °F 5.0 °F 79% 30.25 in 5.0 mi NNE 3.5 mph - N/A   Haze
9:10 AM 10.4 °F 0.8 °F 5.0 °F 79% 30.26 in 10.0 mi NNE 5.8 mph - N/A   Mostly Cloudy
9:30 AM 12.2 °F 4.3 °F 5.0 °F 73% 30.27 in 10.0 mi North 4.6 mph - N/A   Scattered Clouds
9:50 AM 12.2 °F -1.0 °F 6.8 °F 79% 30.27 in 10.0 mi North 10.4 mph - N/A   Mostly Cloudy
10:10 AM 12.2 °F -3.1 °F 5.0 °F 73% 30.27 in 10.0 mi North 13.8 mph - N/A   Overcast
10:30 AM 12.2 °F -1.0 °F 5.0 °F 73% 30.28 in 10.0 mi North 10.4 mph - N/A   Overcast
10:50 AM 12.2 °F -1.8 °F 3.2 °F 67% 30.29 in 10.0 mi North 11.5 mph - N/A   Mostly Cloudy
11:10 AM 12.2 °F -3.7 °F 3.2 °F 67% 30.29 in 10.0 mi North 15.0 mph - N/A   Overcast
11:30 AM 12.2 °F -4.3 °F 1.4 °F 62% 30.28 in 10.0 mi North 16.1 mph - N/A   Overcast
11:50 AM 12.2 °F -2.5 °F 3.2 °F 67% 30.28 in 10.0 mi North 12.7 mph 19.6 mph N/A   Overcast
12:10 PM 12.2 °F -3.7 °F 3.2 °F 67% 30.27 in 10.0 mi North 15.0 mph - N/A   Overcast
12:30 PM 12.2 °F -2.5 °F -0.4 °F 57% 30.27 in 10.0 mi North 12.7 mph - N/A   Overcast
12:50 PM 12.2 °F -3.1 °F 1.4 °F 62% 30.28 in 10.0 mi North 13.8 mph - N/A   Mostly Cloudy
1:10 PM 12.2 °F -4.3 °F 1.4 °F 62% 30.28 in 10.0 mi North 16.1 mph - N/A   Mostly Cloudy
1:30 PM 14.0 °F -2.5 °F 1.4 °F 57% 30.28 in 10.0 mi NNW 17.3 mph 21.9 mph N/A   Mostly Cloudy
1:50 PM 14.0 °F -3.4 °F 1.4 °F 57% 30.28 in 10.0 mi North 19.6 mph - N/A   Mostly Cloudy
2:10 PM 12.2 °F -3.1 °F 1.4 °F 62% 30.30 in 10.0 mi North 13.8 mph - N/A   Scattered Clouds
2:30 PM 12.2 °F -1.8 °F 1.4 °F 62% 30.30 in 10.0 mi North 11.5 mph 20.7 mph N/A   Scattered Clouds
2:50 PM 10.4 °F -5.4 °F -0.4 °F 62% 30.30 in 10.0 mi North 13.8 mph - N/A   Scattered Clouds
3:10 PM 10.4 °F -4.8 °F 1.4 °F 67% 30.32 in 10.0 mi North 12.7 mph - N/A   Overcast
3:30 PM 10.4 °F -6.0 °F 1.4 °F 67% 30.33 in 7.0 mi North 15.0 mph - N/A   Overcast
3:50 PM 8.6 °F -8.9 °F 1.4 °F 73% 30.35 in 4.0 mi North 16.1 mph 20.7 mph N/A   Haze
4:10 PM 8.6 °F -8.9 °F -0.4 °F 67% 30.35 in 10.0 mi NNE 16.1 mph 21.9 mph N/A   Overcast
4:30 PM 5.0 °F -11.6 °F -4.0 °F 66% 30.36 in 10.0 mi North 12.7 mph 20.7 mph N/A   Mostly Cloudy
4:50 PM 3.2 °F -12.2 °F -4.0 °F 72% 30.39 in 10.0 mi North 10.4 mph - N/A   Scattered Clouds
5:10 PM 3.2 °F -15.9 °F -5.8 °F 66% 30.39 in 10.0 mi North 16.1 mph 23.0 mph N/A   Scattered Clouds
5:30 PM 1.4 °F -16.1 °F -5.8 °F 72% 30.40 in 10.0 mi North 12.7 mph - N/A   Scattered Clouds
5:50 PM -0.4 °F -15.7 °F -7.6 °F 72% 30.40 in 10.0 mi North 9.2 mph - N/A   Clear
6:10 PM -4.0 °F -20.2 °F -7.6 °F 85% 30.41 in 10.0 mi North 9.2 mph - N/A   Clear
6:30 PM -2.2 °F -19.9 °F -9.4 °F 71% 30.41 in 10.0 mi North 11.5 mph - N/A   Clear
6:50 PM -4.0 °F -20.2 °F -11.2 °F 71% 30.41 in 10.0 mi NNW 9.2 mph - N/A   Clear
7:10 PM -5.8 °F -23.4 °F -13.0 °F 71% 30.41 in 10.0 mi NW 10.4 mph - N/A   Clear
7:30 PM -5.8 °F -22.4 °F -11.2 °F 77% 30.42 in 10.0 mi NW 9.2 mph - N/A   Clear
7:50 PM -5.8 °F -24.4 °F -13.0 °F 71% 30.42 in 10.0 mi NW 11.5 mph - N/A   Clear
8:10 PM -5.8 °F -24.4 °F -13.0 °F 71% 30.42 in 10.0 mi NW 11.5 mph - N/A   Clear
8:30 PM -7.6 °F -24.6 °F -13.0 °F 77% 30.42 in 10.0 mi WNW 9.2 mph - N/A   Clear
8:50 PM -5.8 °F -16.7 °F -13.0 °F 71% 30.41 in 10.0 mi West 4.6 mph - N/A   Clear
9:10 PM -9.4 °F -24.3 °F -16.6 °F 71% 30.40 in 10.0 mi WNW 6.9 mph - N/A   Clear
9:30 PM -7.6 °F -16.5 °F -14.8 °F 71% 30.40 in 10.0 mi NW 3.5 mph - N/A   Clear
9:50 PM -5.8 °F -16.7 °F -14.8 °F 65% 30.40 in 10.0 mi West 4.6 mph - N/A   Clear
10:10 PM -9.4 °F -27.9 °F -14.8 °F 77% 30.39 in 10.0 mi West 10.4 mph - N/A   Clear
10:30 PM -7.6 °F -22.1 °F -14.8 °F 71% 30.39 in 10.0 mi West 6.9 mph - N/A   Clear
10:50 PM -11.2 °F -26.4 °F -16.6 °F 77% 30.38 in 10.0 mi WSW 6.9 mph - N/A   Clear
11:10 PM -11.2 °F -26.4 °F -16.6 °F 77% 30.37 in 10.0 mi West 6.9 mph - N/A   Clear
11:30 PM -11.2 °F -26.4 °F -16.6 °F 77% 30.36 in 10.0 mi SW 6.9 mph - N/A   Clear
11:50 PM -11.2 °F -29.0 °F -16.6 °F 77% 30.34 in 10.0 mi SW 9.2 mph - N/A   Clear